Weather History for Monroe, MI

Change the Weather History Date:

Sunday, July 28, 2013

  Actual Average Record
Temperature  
Mean Temperature 61 °F -  
Max Temperature 69 °F 85 °F 102 °F (1941)
Min Temperature 53 °F 63 °F 24 °F (1997)
Degree Days  
Heating Degree Days 4    
Growing Degree Days 11 (Base 50)    
Moisture  
Dew Point 54 °F    
Average Humidity 77    
Maximum Humidity 100    
Minimum Humidity 56    
Precipitation  
Precipitation 0.00 in - - ()
Sea Level Pressure  
Sea Level Pressure 29.90 in    
Wind  
Wind Speed 7 mph (WSW)    
Max Wind Speed 18 mph    
Max Gust Speed 26 mph    
Visibility 10 miles    
Events      
Averages and records for this station are not official NWS values.
T = Trace of Precipitation, MM = Missing Value Source: NWS Daily Summary

Daily Weather History Graph

Daily Weather History Graph

Search for Another Location

Airport:

Trip Planner

Search our weather history database for the weather conditions in past years. The results will help you decide how hot, cold, wet, or windy it might be!

Date:

Astronomy

Jul. 28, 2013 Rise Set
Actual Time 6:23 AM EDT 8:56 PM EDT
Civil Twilight 5:51 AM EDT 9:28 PM EDT
Nautical Twilight 5:11 AM EDT 10:07 PM EDT
Astronomical Twilight 4:26 AM EDT 10:52 PM EDT
Moon No Moon Rise 1:12 PM EDT (7/28)
Length of Visible Light 15h 36m
Length of Day
14h 32m
Waning Gibbous, 61% of the Moon is Illuminated
Jul 28
Waning Gibbous
Jul 29
Last Quarter
Aug 6
New
Aug 14
First Quarter
Aug 20
Full

Hourly Weather History & Observations

Time (EDT) Temp. Dew Point Humidity Pressure Visibility Wind Dir Wind Speed Gust Speed Precip Events Conditions
12:12 AM 60.8 °F 55.4 °F 82% 29.86 in 10.0 mi West 5.8 mph - N/A   Clear
12:33 AM 59.0 °F 55.4 °F 88% 29.87 in 10.0 mi WSW 5.8 mph - N/A   Clear
12:53 AM 59.0 °F 55.4 °F 88% 29.87 in 10.0 mi WSW 5.8 mph - N/A   Clear
1:13 AM 57.2 °F 55.4 °F 94% 29.86 in 10.0 mi WSW 4.6 mph - N/A   Clear
1:33 AM 57.2 °F 55.4 °F 94% 29.86 in 10.0 mi West 4.6 mph - N/A   Clear
1:53 AM 57.2 °F 53.6 °F 88% 29.86 in 10.0 mi Calm Calm - N/A   Clear
2:13 AM 55.4 °F 53.6 °F 94% 29.85 in 10.0 mi Calm Calm - N/A   Clear
2:33 AM 55.4 °F 53.6 °F 94% 29.85 in 10.0 mi Calm Calm - N/A   Clear
2:53 AM 55.4 °F 53.6 °F 94% 29.85 in 10.0 mi Calm Calm - N/A   Clear
3:13 AM 55.4 °F 53.6 °F 94% 29.85 in 10.0 mi SW 5.8 mph - N/A   Clear
3:33 AM 55.4 °F 53.6 °F 94% 29.85 in 10.0 mi SW 4.6 mph - N/A   Clear
3:54 AM 55.4 °F 53.6 °F 94% 29.85 in 10.0 mi SW 4.6 mph - N/A   Clear
4:14 AM 55.4 °F 53.6 °F 94% 29.86 in 10.0 mi WSW 6.9 mph - N/A   Clear
4:34 AM 53.6 °F 53.6 °F 100% 29.87 in 10.0 mi WSW 5.8 mph - N/A   Clear
4:54 AM 53.6 °F 53.6 °F 100% 29.86 in 10.0 mi WSW 4.6 mph - N/A   Clear
5:14 AM 53.6 °F 53.6 °F 100% 29.87 in 10.0 mi SW 3.5 mph - N/A   Clear
5:34 AM 53.6 °F 51.8 °F 94% 29.87 in 10.0 mi SSW 3.5 mph - N/A   Clear
5:54 AM 53.6 °F 51.8 °F 94% 29.87 in 10.0 mi SSW 3.5 mph - N/A   Clear
6:14 AM 53.6 °F 51.8 °F 94% 29.88 in 10.0 mi South 3.5 mph - N/A   Clear
6:34 AM 53.6 °F 51.8 °F 94% 29.88 in 10.0 mi SSW 3.5 mph - N/A   Clear
6:54 AM 53.6 °F 53.6 °F 100% 29.88 in 10.0 mi SSW 5.8 mph - N/A   Clear
7:15 AM 55.4 °F 53.6 °F 94% 29.88 in 10.0 mi SSW 5.8 mph - N/A   Clear
7:35 AM 57.2 °F 53.6 °F 88% 29.89 in 10.0 mi SW 5.8 mph - N/A   Clear
7:55 AM 57.2 °F 53.6 °F 88% 29.89 in 10.0 mi SW 10.4 mph - N/A   Clear
8:15 AM 59.0 °F 53.6 °F 82% 29.90 in 10.0 mi SW 9.2 mph - N/A   Clear
8:35 AM 60.8 °F 53.6 °F 77% 29.90 in 10.0 mi SW 10.4 mph - N/A   Clear
8:55 AM 60.8 °F 53.6 °F 77% 29.90 in 10.0 mi SW 10.4 mph 17.3 mph N/A   Clear
9:15 AM 62.6 °F 53.6 °F 72% 29.90 in 10.0 mi SSW 12.7 mph 16.1 mph N/A   Clear
9:35 AM 62.6 °F 55.4 °F 77% 29.90 in 10.0 mi SW 11.5 mph 16.1 mph N/A   Clear
9:55 AM 64.4 °F 53.6 °F 68% 29.90 in 10.0 mi SW 10.4 mph 17.3 mph N/A   Scattered Clouds
10:16 AM 64.4 °F 53.6 °F 68% 29.90 in 10.0 mi SW 12.7 mph 20.7 mph N/A   Scattered Clouds
10:36 AM 64.4 °F 53.6 °F 68% 29.90 in 10.0 mi WSW 9.2 mph - N/A   Scattered Clouds
10:56 AM 66.2 °F 53.6 °F 64% 29.89 in 10.0 mi SW 11.5 mph 18.4 mph N/A   Scattered Clouds
11:16 AM 66.2 °F 53.6 °F 64% 29.90 in 10.0 mi WSW 15.0 mph - N/A   Scattered Clouds
11:36 AM 66.2 °F 53.6 °F 64% 29.90 in 10.0 mi WSW 12.7 mph 25.3 mph N/A   Scattered Clouds
11:56 AM 66.2 °F 53.6 °F 64% 29.89 in 10.0 mi WSW 15.0 mph 19.6 mph N/A   Scattered Clouds
12:16 PM 66.2 °F 53.6 °F 64% 29.89 in 10.0 mi WSW 16.1 mph - N/A   Mostly Cloudy
12:36 PM 66.2 °F 53.6 °F 64% 29.89 in 10.0 mi WSW 12.7 mph 23.0 mph N/A   Mostly Cloudy
12:56 PM 66.2 °F 53.6 °F 64% 29.89 in 10.0 mi WSW 12.7 mph 20.7 mph N/A   Mostly Cloudy
1:16 PM 66.2 °F 53.6 °F 64% 29.90 in 10.0 mi WSW 11.5 mph 20.7 mph N/A   Overcast
1:37 PM 66.2 °F 53.6 °F 64% 29.90 in 10.0 mi WSW 12.7 mph 18.4 mph N/A   Overcast
1:52 PM 66.2 °F 53.6 °F 64% 29.90 in 10.0 mi SW 9.2 mph 17.3 mph N/A   Overcast
2:12 PM 66.2 °F 53.6 °F 64% 29.90 in 10.0 mi WSW 10.4 mph - N/A   Overcast
2:32 PM 66.2 °F 53.6 °F 64% 29.90 in 10.0 mi WSW 11.5 mph - N/A   Mostly Cloudy
2:52 PM 68.0 °F 53.6 °F 60% 29.90 in 10.0 mi SW 8.1 mph - N/A   Mostly Cloudy
3:12 PM 66.2 °F 53.6 °F 64% 29.90 in 10.0 mi WSW 11.5 mph 17.3 mph N/A   Mostly Cloudy
3:32 PM 68.0 °F 53.6 °F 60% 29.90 in 10.0 mi SW 11.5 mph 21.9 mph N/A   Mostly Cloudy
3:52 PM 69.8 °F 55.4 °F 60% 29.90 in 10.0 mi WSW 9.2 mph 17.3 mph N/A   Mostly Cloudy
4:13 PM 68.0 °F 53.6 °F 60% 29.90 in 10.0 mi SW 18.4 mph 26.5 mph N/A   Mostly Cloudy
4:33 PM 68.0 °F 53.6 °F 60% 29.91 in 10.0 mi WSW 16.1 mph 24.2 mph N/A   Mostly Cloudy
4:53 PM 68.0 °F 55.4 °F 64% 29.91 in 10.0 mi NW 13.8 mph 24.2 mph N/A   Mostly Cloudy
5:13 PM 68.0 °F 55.4 °F 64% 29.92 in 10.0 mi West 11.5 mph - N/A   Scattered Clouds
5:33 PM 69.8 °F 55.4 °F 60% 29.92 in 10.0 mi West 9.2 mph - N/A   Scattered Clouds
5:44 PM 69.8 °F 55.4 °F 60% 29.92 in 10.0 mi West 10.4 mph - N/A   Clear
6:15 PM 69.8 °F 53.6 °F 56% 29.92 in 10.0 mi West 12.7 mph 19.6 mph N/A   Scattered Clouds
6:32 PM 68.0 °F 55.4 °F 64% 29.92 in 10.0 mi WSW 11.5 mph - N/A   Mostly Cloudy
6:53 PM 68.0 °F 53.6 °F 60% 29.93 in 10.0 mi West 10.4 mph - N/A   Mostly Cloudy
7:13 PM 66.2 °F 53.6 °F 64% 29.94 in 10.0 mi West 8.1 mph - N/A   Mostly Cloudy
7:34 PM 68.0 °F 53.6 °F 60% 29.94 in 10.0 mi West 12.7 mph - N/A   Mostly Cloudy
7:54 PM 66.2 °F 53.6 °F 64% 29.94 in 10.0 mi West 9.2 mph - N/A   Scattered Clouds
8:15 PM 66.2 °F 53.6 °F 64% 29.95 in 10.0 mi West 5.8 mph - N/A   Clear
8:35 PM 64.4 °F 53.6 °F 68% 29.96 in 10.0 mi WNW 5.8 mph - N/A   Scattered Clouds
8:53 PM 62.6 °F 53.6 °F 72% 29.96 in 10.0 mi West 3.5 mph - N/A   Mostly Cloudy
9:13 PM 60.8 °F 53.6 °F 77% 29.97 in 10.0 mi West 4.6 mph - N/A   Scattered Clouds
9:34 PM 60.8 °F 55.4 °F 82% 29.97 in 10.0 mi WSW 3.5 mph - N/A   Clear
9:54 PM 60.8 °F 55.4 °F 82% 29.98 in 10.0 mi WSW 4.6 mph - N/A   Clear
10:14 PM 60.8 °F 55.4 °F 82% 29.99 in 10.0 mi SW 4.6 mph - N/A   Clear
10:34 PM 60.8 °F 53.6 °F 77% 29.99 in 10.0 mi WSW 5.8 mph - N/A   Clear
10:54 PM 59.0 °F 53.6 °F 82% 29.99 in 10.0 mi WSW 6.9 mph - N/A   Clear
11:15 PM 59.0 °F 53.6 °F 82% 30.00 in 10.0 mi WSW 6.9 mph - N/A   Clear
11:35 PM 59.0 °F 53.6 °F 82% 30.00 in 10.0 mi WSW 5.8 mph - N/A   Clear
11:55 PM 57.2 °F 53.6 °F 88% 30.00 in 10.0 mi WSW 4.6 mph - N/A   Clear